Flag for United Kingdom Weather past 2 weeks in Liverpool, England, United Kingdom

Now
50 °F

Partly sunny.


Feels Like: 45 °F
Forecast: N/A
Wind: 15 mph from Southwest

Location: Liverpool Airport

Current Time: Mar 5, 2015 at 3:38:32 PM

Latest Report: Mar 5, 2015 at 3:20 PM


Visibility: N/A

Pressure: 30.57 "Hg

Humidity: 71%

Dew point: 41 °F

Location of LiverpoolLocation

Historic Weather in Liverpool — Graph

°F

Liverpool temperature yesterday

Maximum temperature yesterday: 46 °F (at 1:20 PM)
Minimum temperature yesterday: 39 °F (at 8:50 PM)
Average temperature yesterday: 42 °F

Past Weeks' High & Low Weather Summary

 TemperatureHumidityPressure
High52 °F (Feb 18, 2:20 PM)100% (Feb 25, 6:50 AM)30.63 "Hg (Feb 25, 6:50 AM)
Low34 °F (Feb 22, 7:20 AM)53% (Mar 2, 3:20 PM)29.00 "Hg (Feb 23, 5:50 PM)
Average43 °F81%29.75 "Hg
* Reported Feb 18 2:20 PM — Mar 5 2:20 PM, Liverpool, Weather by CustomWeather, © 2015

Note: Actual official high and low records may vary slightly from our data, if they occured in-between our weather recording intervals... More about our weather records

Advertising

Liverpool weather history for previous 24 hours

 ConditionsComfort  
Time TempWeatherWind HumidityBarometerVisibility
2:20 PM
Thu, Mar 5
50 °FPartly sunny.13 mph71%30.57 "HgN/A
1:50 PM48 °FPartly sunny.14 mph76%30.57 "HgN/A
1:20 PM50 °FPartly sunny.17 mph71%30.57 "HgN/A
12:50 PM48 °FPartly sunny.16 mph71%30.60 "HgN/A
12:20 PM50 °FPartly sunny.16 mph71%30.60 "HgN/A
11:50 AM48 °FPartly sunny.14 mph76%30.60 "HgN/A
11:20 AM46 °FPartly sunny.12 mph76%30.60 "HgN/A
10:50 AM46 °FPartly sunny.8 mph82%30.60 "HgN/A
10:20 AM45 °FPartly sunny.8 mph87%30.60 "HgN/A
9:50 AM45 °FPartly sunny.9 mph81%30.60 "HgN/A
9:20 AM45 °FPartly sunny.8 mph81%30.63 "HgN/A
8:50 AM43 °FPartly sunny.8 mph87%30.63 "HgN/A
8:20 AM41 °FPartly sunny.8 mph93%30.63 "HgN/A
7:50 AM39 °FPartly sunny.7 mph93%30.60 "HgN/A
7:20 AM39 °FPartly sunny.9 mph93%30.60 "HgN/A
6:50 AM37 °FScattered clouds.8 mph93%30.60 "HgN/A
6:20 AM39 °FPassing clouds.10 mph93%30.63 "HgN/A
5:50 AM37 °FPassing clouds.9 mph93%30.60 "HgN/A
5:20 AM37 °FClear.3 mph93%30.60 "Hg10 mi
4:20 AM37 °FPassing clouds.5 mph93%30.60 "HgN/A
3:20 AM37 °FClear.6 mph93%30.63 "Hg10 mi
2:50 AM37 °FClear.5 mph93%30.63 "Hg10 mi
1:50 AM39 °FPassing clouds.5 mph87%30.63 "HgN/A
1:20 AM39 °FPassing clouds.6 mph87%30.63 "HgN/A
12:50 AM39 °FClear.5 mph87%30.63 "Hg10 mi
12:20 AM39 °FClear.6 mph87%30.63 "Hg10 mi
11:50 PM
Wed, Mar 4
39 °FClear.6 mph81%30.63 "Hg10 mi
11:20 PM39 °FPassing clouds.5 mph81%30.63 "HgN/A
10:50 PM39 °FPassing clouds.5 mph81%30.63 "HgN/A
10:20 PM39 °FClear.5 mph81%30.63 "Hg10 mi
9:20 PM39 °FClear.3 mph81%30.63 "Hg10 mi
8:50 PM39 °FClear.7 mph81%30.63 "Hg10 mi
8:20 PM41 °FClear.9 mph81%30.60 "Hg10 mi
7:50 PM41 °FClear.7 mph81%30.60 "Hg10 mi
7:20 PM41 °FClear.7 mph81%30.60 "Hg10 mi
6:50 PM41 °FClear.8 mph76%30.60 "Hg10 mi
6:20 PM43 °FClear.12 mph76%30.57 "Hg10 mi
5:50 PM43 °FSunny.12 mph76%30.57 "Hg10 mi
5:20 PM45 °FPassing clouds.15 mph76%30.57 "HgN/A
4:50 PM45 °FPassing clouds.18 mph76%30.54 "HgN/A
4:20 PM45 °FPassing clouds.17 mph76%30.54 "HgN/A
3:20 PM46 °FPassing clouds.20 mph76%30.51 "HgN/A
Weather by CustomWeather, © 2015

See weather overviewHow to use our weather pages